Location: Warwick
(41.7000°N, 71.4170°W)
Time: 22:41:21
(UTC-05:00)

BREEZE-M DEB (TANK) - Visible Passes

Search period start: 21 January 2017 00:00
Search period end: 31 January 2017 00:00
Orbit: 306 x 15862 km, 49.5° (Epoch: 21 January)

Date Brightness Start Highest point End Pass type
(mag) Time Alt. Az. Time Alt. Az. Time Alt. Az.
21 Jan 7.7 01:09:31 22° SSE 01:09:31 22° SSE 01:23:40 10° SSE visible
22 Jan 7.8 01:12:25 22° SSE 01:12:25 22° SSE 01:26:25 10° SSE visible
23 Jan 7.8 01:15:19 21° SSE 01:15:19 21° SSE 01:29:05 10° SSE visible
24 Jan 7.9 01:18:12 20° SSE 01:18:12 20° SSE 01:31:37 10° SSE visible
25 Jan 7.9 01:21:03 20° SSE 01:21:03 20° SSE 01:34:03 10° SSE visible
26 Jan 7.9 01:23:53 19° S 01:23:53 19° S 01:36:20 10° SSE visible
27 Jan 8.0 01:26:41 18° S 01:26:41 18° S 01:38:31 10° SSE visible
28 Jan 8.0 01:29:29 18° S 01:29:29 18° S 01:40:33 10° SSE visible
29 Jan 8.1 01:32:15 17° S 01:32:15 17° S 01:42:28 10° S visible
30 Jan 8.1 01:35:00 16° S 01:35:00 16° S 01:44:14 10° S visible
